Location: Area 52 Observatory
(34.2620°N, 119.2590°W)
Time: 00:02:15
(UTC-07:00)

Tiangong 2 - Pass Details

Date: 23 March 2019
Orbit: 378 x 389 km, 42.8° (Epoch: 21 April)

Event Time Altitude Azimuth Distance (km) Brightness Sun altitude
Exits shadow 06:00:45 21° 282° (WNW) 932 2.4 -12.4°
Maximum altitude 06:02:37 51° 213° (SSW) 488 1.3 -12.0°
Drops below altitude 10° 06:05:41 10° 136° (SE) 1,397 4.4 -11.3°
Sets 06:07:47 0° 131° (SE) 2,250 5.6 -10.9°
